Regional Weather Roundup
Issued by NWS Glasgow, MT

Home | Current Version | Previous Version | Text Only | Print | Product List | Glossary On
Versions: 1 2 3 4 5 6 7 8 9 10 11 12 13 14 15 16 17 18 19 20 21 22 23 24 25 26 27 28
000
ASUS45 KGGW 210315
RWRGGW
HOURLY REGIONAL WEATHER ROUNDUP FOR NORTHEAST MONTANA
NATIONAL WEATHER SERVICE GLASGOW MONTANA
800 PM MST MON FEB 20 2017

NOTE: "FAIR" INDICATES FEW OR NO CLOUDS BELOW 12,000 FEET WITH NO
SIGNIFICANT WEATHER AND/OR OBSTRUCTIONS TO VISISBILITY.

NORTHEAST MONTANA


CITY           SKY/WX    TMP DP  RH WIND       PRES   REMARKS
GLASGOW        LGT RAIN  45  39  79 SW9       29.60S
PLENTYWOOD       N/A     37  26  64 E3          N/A
WOLF POINT     LGT RAIN  40  30  67 CALM      29.64R
JORDAN           N/A     42  34  73 W3        29.63R
WINNETT          N/A     43  30  61 S3G13       N/A
SIDNEY         CLOUDY    43  28  55 CALM      29.65F
GLENDIVE       CLOUDY    44  28  53 SE6       29.64F
MALTA            N/A     41  36  82 SW3         N/A

FORT PECK REPORTS


CITY           SKY/WX    TMP DP  RH WIND       PRES   REMARKS
FORT PECK        N/A     43  35  73 S14G26      N/A
THE PINES        N/A     48  33  56 E1          N/A

SOUTHEAST MONTANA


CITY           SKY/WX    TMP DP  RH WIND       PRES   REMARKS
BILLINGS       CLOUDY    50  31  48 W18       29.67R
MILES CITY     CLOUDY    46  29  51 S9        29.63F
BAKER          CLOUDY    42  30  62 VRB6      29.68F
LIVINGSTON     PTCLDY    48  29  47 SW29G45   29.68R

CENTRAL MONTANA


CITY           SKY/WX    TMP DP  RH WIND       PRES   REMARKS
HAVRE          PTCLDY    37  35  92 SW12      29.57R
LEWISTOWN      PTCLDY    39  35  86 CALM      29.66R
GREAT FALLS    PTCLDY    34  30  85 W3        29.62R
CUT BANK       PTCLDY    36  29  75 SW13      29.55R
HELENA         PTCLDY    47  28  47 SW9       29.64S
BUTTE          CLOUDY    39  28  64 SE5       29.71F
BOZEMAN        CLOUDY    44  30  57 SW16      29.72S

WESTERN MONTANA


CITY           SKY/WX    TMP DP  RH WIND       PRES   REMARKS
MISSOULA       LGT RAIN  34  34 100 NW7       29.72R
KALISPELL      NOT AVBL

NORTH DAKOTA


CITY           SKY/WX    TMP DP  RH WIND       PRES   REMARKS
WILLISTON      MOCLDY    34  29  82 CALM      29.66F
DICKINSON      CLEAR     34  26  72 S7        29.68F
MINOT          CLEAR     37  32  82 SW9       29.69F
BISMARCK       CLEAR     36  32  85 E3        29.75F

SOUTHERN SASKATCHEWAN


CITY           SKY/WX    TMP DP  RH WIND       PRES   REMARKS
REGINA         PTCLDY    30  30 100 E6        29.63F
ESTEVAN        PTCLDY    32  28  86 SW2       29.66F
SWIFT CURRENT  CLOUDY    36  28  75 E7        29.58S





USA.gov is the U.S. government's official web portal to all federal, state and local government web resources and services.